| time (UTC) | temp C | wind direction | speed KPH | gust KPH | rain 1hr cm | rain 24hr cm | rain mn cm | humidity % | barometer mb |
| 20260903073103 | 17 | 230 | 8.0 | 0.0 | 0.00 | 0.00 | 0.00 | 72 | 1021.0 |
| 20260903072054 | 17 | 250 | 11.3 | 0.0 | 0.00 | 0.00 | 0.00 | 67 | |
| 20260903070210 | 17 | 220 | 9.7 | 0.0 | 0.00 | 0.00 | 0.00 | 77 | 1021.0 |
| 20260903063102 | 17 | 240 | 4.8 | 0.0 | 0.00 | 0.00 | 0.00 | 77 | 1020.0 |
| 20260903061851 | 16 | 330 | 3.2 | 0.0 | 0.00 | 0.00 | 0.00 | 82 | |
| 20260903053103 | 15 | 220 | 1.6 | 0.0 | 0.00 | 0.00 | 0.00 | 87 | 1020.0 |
| 20260903051851 | 15 | 210 | 3.2 | 0.0 | 0.00 | 0.00 | 0.00 | 87 | |
| 20260903043102 | 13 | 220 | 8.0 | 0.0 | 0.00 | 0.00 | 0.00 | 93 | 1020.0 |
| 20260903042254 | 15 | 220 | 8.0 | 0.0 | 0.00 | 0.00 | 0.00 | 87 | |
| 20260903040103 | 13 | 220 | 8.0 | 0.0 | 0.00 | 0.00 | 0.00 | 93 | 1020.0 |
| 20260903033102 | 15 | 210 | 4.8 | 0.0 | 0.00 | 0.00 | 0.00 | 87 | 1020.0 |
| 20260903031852 | 15 | 220 | 3.2 | 0.0 | 0.00 | 0.00 | 0.00 | 82 | |
| 20260903030103 | 13 | 220 | 4.8 | 0.0 | 0.00 | 0.00 | 0.00 | 93 | 1020.0 |
| 20260903023102 | 13 | 200 | 8.0 | 0.0 | 0.00 | 0.00 | 0.00 | 93 | 1020.0 |
| 20260903021851 | 15 | 220 | 8.0 | 0.0 | 0.00 | 0.00 | 0.00 | 82 | |
| 20260903020103 | 13 | 220 | 8.0 | 0.0 | 0.00 | 0.00 | 0.00 | 87 | 1020.0 |
| 20260903013103 | 13 | 230 | 8.0 | 0.0 | 0.00 | 0.00 | 0.00 | 87 | 1020.0 |
| 20260903012052 | 16 | 270 | 8.0 | 0.0 | 0.00 | 0.00 | 0.00 | 72 | |
| 20260903003102 | 15 | 250 | 9.7 | 0.0 | 0.00 | 0.00 | 0.00 | 82 | 1020.0 |
| 20260903001854 | 16 | 240 | 11.3 | 0.0 | 0.00 | 0.00 | 0.00 | 77 | |
| 20260903000104 | 15 | 250 | 9.7 | 0.0 | 0.00 | 0.00 | 0.00 | 82 | 1020.0 |
| 20260902233102 | 15 | 210 | 8.0 | 0.0 | 0.00 | 0.00 | 0.00 | 82 | 1020.0 |
| 20260902231851 | 16 | 190 | 8.0 | 0.0 | 0.00 | 0.00 | 0.00 | 77 | |
| 20260902230104 | 16 | 190 | 8.0 | 0.0 | 0.00 | 0.00 | 0.00 | 82 | 1020.0 |
| 20260902223103 | 16 | 200 | 4.8 | 0.0 | 0.00 | 0.00 | 0.00 | 77 | 1020.0 |
| 20260902222253 | 16 | 160 | 8.0 | 0.0 | 0.00 | 0.00 | 0.00 | 77 | |
| 20260902213102 | 17 | 190 | 9.7 | 0.0 | 0.00 | 0.00 | 0.00 | 77 | 1020.0 |
| 20260902211853 | 17 | 200 | 11.3 | 0.0 | 0.00 | 0.00 | 0.00 | 77 | |
| 20260902210212 | 17 | 200 | 11.3 | 0.0 | 0.00 | 0.00 | 0.00 | 77 | 1020.0 |
| 20260902203103 | 17 | 0 | 0.0 | 0.0 | 0.00 | 0.00 | 0.00 | 77 | 1020.0 |
| 20260902201854 | 17 | 40 | 3.2 | 0.0 | 0.00 | 0.00 | 0.00 | 67 | |
| 20260902200103 | 17 | 0 | 3.2 | 0.0 | 0.00 | 0.00 | 0.00 | 72 | 1020.0 |
| 20260902193103 | 18 | 0 | 1.6 | 0.0 | 0.00 | 0.00 | 0.00 | 68 | 1020.0 |
| 20260902192055 | 20 | 220 | 3.2 | 0.0 | 0.00 | 0.00 | 0.00 | 60 | |
| 20260902190211 | 20 | 0 | 3.2 | 0.0 | 0.00 | 0.00 | 0.00 | 64 | 1020.0 |
| 20260902183102 | 21 | 0 | 1.6 | 0.0 | 0.00 | 0.00 | 0.00 | 56 | 1019.0 |
| 20260902181851 | 22 | 360 | 3.2 | 0.0 | 0.00 | 0.00 | 0.00 | 53 | |
| 20260902180103 | 21 | 0 | 1.6 | 0.0 | 0.00 | 0.00 | 0.00 | 60 | 1019.0 |
| 20260902173102 | 22 | 0 | 1.6 | 0.0 | 0.00 | 0.00 | 0.00 | 49 | 1019.0 |
| 20260902172054 | 22 | 280 | 3.2 | 0.0 | 0.00 | 0.00 | 0.00 | 49 | |
| 20260902163103 | 22 | 230 | 9.7 | 0.0 | 0.00 | 0.00 | 0.00 | 49 | 1019.0 |
| 20260902162254 | 23 | 250 | 8.0 | 0.0 | 0.00 | 0.00 | 0.00 | 41 | |
| 20260902153103 | 23 | 220 | 8.0 | 0.0 | 0.00 | 0.00 | 0.00 | 41 | 1019.0 |
| 20260902151850 | 23 | 210 | 3.2 | 0.0 | 0.00 | 0.00 | 0.00 | 41 | |
| 20260902143103 | 23 | 260 | 4.8 | 0.0 | 0.00 | 0.00 | 0.00 | 44 | 1019.0 |
| 20260902142054 | 23 | 250 | 8.0 | 0.0 | 0.00 | 0.00 | 0.00 | 38 | |
| 20260902140212 | 23 | 200 | 11.3 | 0.0 | 0.00 | 0.00 | 0.00 | 41 | 1020.0 |
| 20260902133103 | 22 | 240 | 9.7 | 0.0 | 0.00 | 0.00 | 0.00 | 43 | 1020.0 |
| 20260902132052 | 23 | 250 | 11.3 | 0.0 | 0.00 | 0.00 | 0.00 | 38 | |
| 20260902130103 | 23 | 270 | 8.0 | 0.0 | 0.00 | 0.00 | 0.00 | 44 | 1020.0 |
| 20260902123102 | 22 | 280 | 9.7 | 0.0 | 0.00 | 0.00 | 0.00 | 46 | 1020.0 |
| 20260902121853 | 22 | 220 | 11.3 | 0.0 | 0.00 | 0.00 | 0.00 | 43 | |
| 20260902113103 | 22 | 0 | 3.2 | 0.0 | 0.00 | 0.00 | 0.00 | 49 | 1021.0 |
| 20260902112052 | 22 | 240 | 11.3 | 0.0 | 0.00 | 0.00 | 0.00 | 53 | |
| 20260902110210 | 22 | 210 | 8.0 | 0.0 | 0.00 | 0.00 | 0.00 | 53 | 1021.0 |
| 20260902103102 | 22 | 260 | 9.7 | 0.0 | 0.00 | 0.00 | 0.00 | 53 | 1021.0 |
| 20260902102153 | 21 | 230 | 8.0 | 0.0 | 0.00 | 0.00 | 0.00 | 56 | |
| 20260902093103 | 21 | 310 | 4.8 | 0.0 | 0.00 | 0.00 | 0.00 | 60 | 1021.0 |
| 20260902091851 | 20 | 310 | 3.2 | 0.0 | 0.00 | 0.00 | 0.00 | 60 | |
| 20260902090104 | 21 | 0 | 3.2 | 0.0 | 0.00 | 0.00 | 0.00 | 60 | 1021.0 |
| 20260902083102 | 18 | 180 | 4.8 | 0.0 | 0.00 | 0.00 | 0.00 | 68 | 1021.0 |
| 20260902082051 | 17 | 200 | 3.2 | 0.0 | 0.00 | 0.00 | 0.00 | 67 | |
| 20260902080104 | 18 | 0 | 1.6 | 0.0 | 0.00 | 0.00 | 0.00 | 68 | 1021.0 |